Regional Weather Roundup
Issued by NWS

Home | Current Version | Previous Version | Graphics & Text | Print | Product List | Glossary On
Versions: 1 2 3 4 5 6 7 8 9 10 11 12 13 14 15 16 17 18 19 20 21 22 23 24 25 26 27 28 29 30 31 32 33 34 35 36 37 38 39 40 41 42 43 44 45 46 47 48 49 50
000
ASUS43 KLMK 011202
RWRKY
KENTUCKY REGIONAL WEATHER ROUNDUP
NATIONAL WEATHER SERVICE LOUISVILLE KY
800 AM EDT SUN MAY 01 2016

NOTE "FAIR" INDICATES FEW OR NO CLOUDS BELOW 12,000 FEET
WITH NO SIGNIFICANT WEATHER AND/OR OBSTRUCTIONS TO VISIBILITY.

KYZ001>023-026-027-061>063-070>075-011300-
WESTERN AND SOUTH CENTRAL KENTUCKY

CITY           SKY/WX    TMP DP  RH WIND       PRES   REMARKS
PADUCAH        CLOUDY    64  59  83 SE7       29.89R
HENDERSON      MOSUNNY   61  54  77 S6        29.88F
OWENSBORO      MOSUNNY   60  59  97 CALM      29.91R
HOPKINSVILLE   CLOUDY    64  64 100 NW1       29.92R
BOWLING GREEN  CLOUDY    67  65  93 CALM      29.94R FOG
GLASGOW        NOT AVBL
$$

KYZ024-025-028>034-038-045-046-053-011300-
NORTH CENTRAL KENTUCKY

CITY           SKY/WX    TMP DP  RH WIND       PRES   REMARKS
LOUISVILLE/SDF MOSUNNY   65  63  93 S6        29.91S FOG
LOUISVILLE/LOU MOSUNNY   64  63  96 S3        29.92S FOG
FORT KNOX      PTSUNNY   64  64 100 E5        29.90F FOG
$$

KYZ035>037-039>044-047>052-055>060-089>105-011300-
NORTHEAST KENTUCKY

CITY           SKY/WX    TMP DP  RH WIND       PRES   REMARKS
LEXINGTON      CLOUDY    64  62  93 SW3       29.95R
COVINGTON      CLOUDY    62  61  96 SW6       29.92R
FRANKFORT      CLOUDY    64  61  90 S3        29.93R
$$

KYZ054-064>069-076>088-106>120-011300-
SOUTHEAST KENTUCKY

CITY           SKY/WX    TMP DP  RH WIND       PRES   REMARKS
JACKSON        LGT RAIN  60  58  92 CALM      30.00R FOG
LONDON         CLOUDY    61  60  97 SE5       29.99R
SOMERSET       NOT AVBL
MIDDLESBORO    NOT AVBL
MONTICELLO     PTSUNNY   65  64  97 W10       29.98S
$$




USA.gov is the U.S. government's official web portal to all federal, state and local government web resources and services.